Regional Weather Roundup
Issued by NWS Charleston, SC

Current Version | Previous Version | Graphics & Text | Print | Product List | Glossary On
Versions: 1 2 3 4 5 6 7 8 9 10 11 12 13 14 15 16 17 18 19 20 21 22 23 24 25 26 27 28 29 30 31 32 33 34 35 36 37 38 39 40 41 42 43 44 45 46 47 48 49 50
000
ASUS42 KCHS 012126
RWRCHS

REGIONAL WEATHER ROUNDUP
NATIONAL WEATHER SERVICE CHARLESTON SC
400 PM EST SUN FEB 01 2015

NOTE: "FAIR" INDICATES FEW OR NO CLOUDS BELOW 12,000 FEET WITH NO
SIGNIFICANT WEATHER AND/OR OBSTRUCTIONS TO VISIBILITY.

NOT ALL STATIONS ARE QUALITY CONTROLLED BY THE NATIONAL
WEATHER SERVICE. USE DATA WITH CAUTION...ESPECIALLY
DEWPOINT OBSERVATIONS.

SCZ027-030-031-034>040-042>050-012200-
...SOUTHEAST SOUTH CAROLINA...

CITY           SKY/WX    TMP DP  RH WIND       PRES   REMARKS
N CHARLESTON   MOSUNNY   66  47  50 S14       30.11F
WATERFRONT PRK   N/A     61 N/A N/A S15         N/A
MOUNT PLEASANT FAIR      64  48  55 S9G18     30.11F
PINOPOLIS        N/A     66  46  48 S7        30.02F
MONCKS CORNER  CLOUDY    66  46  48 S8        30.11S
SUMMERVILLE    MOCLDY    64  48  55 S10G23    30.11S
BEAUFORT MCAS  SUNNY     67  51  56 S9G18     30.09F
BEAUFORT ARPT  FAIR      66  52  59 S7        30.09F
HILTON HEAD IS SUNNY     64  52  63 SE6       30.11F
WALTERBORO     CLOUDY    68  43  40 S14G20    30.10F
ALLENDALE      FAIR      68  46  45 S7G14     30.05F

...SOUTHERN MIDLANDS AND PEE DEE...

CITY           SKY/WX    TMP DP  RH WIND       PRES   REMARKS
GEORGETOWN     NOT AVBL
KINGSTREE      NOT AVBL
ORANGEBURG     PTSUNNY   66  43  43 S16       30.07F
BARNWELL       FAIR      66  45  45 S6        30.06F
AIKEN          MOCLDY    64  45  48 S7        30.06F
MANNING        FAIR      66 -17   3 S10G17    30.10F
COLUMBIA       CLOUDY    66  41  40 SW10      30.06F
SUMTER         CLOUDY    65  42  43 S12       30.06F
FLORENCE       CLOUDY    64  41  42 S13G23    30.10S
MYRTLE BEACH   MOSUNNY   63  39  42 S12         N/A
N MYRTLE BEACH PTSUNNY   59  43  55 S9        30.13F

$$

GAZ063-065-086>088-099>101-113>116-118-119-134>141-150-012200-
...SOUTHEAST GEORGIA...

CITY           SKY/WX    TMP DP  RH WIND       PRES   REMARKS
SAVANNAH ARPT  MOSUNNY   69  47  45 S15G29    30.08F
HUNTER AAF     SUNNY     67  51  55 S13G21    30.06F
FORT STEWART   PTSUNNY   70  48  46 S10G21    30.05F
STATESBORO     PTSUNNY   68  47  46 S10       30.05F
SYLVANIA       MOCLDY    67  48  49 S3        30.06F
CLAXTON        FAIR      68  48  49 S3        30.05F

...CSRA...CENTRAL AND FAR SOUTHEAST GEORGIA...

CITY           SKY/WX    TMP DP  RH WIND       PRES   REMARKS
THOMSON        CLOUDY    67  51  56 S8        30.05F
AUGUSTA-BUSH   CLOUDY    67  44  43 S12       30.04F
AUGUSTA-DANIEL CLOUDY    68  44  42 S13       30.04F
SWAINSBORO     FAIR      70  32  24 S9        30.04F
VIDALIA        MOSUNNY   68  46  45 S12G18    30.04F
EASTMAN        FAIR      68  50  51 S9        30.05F
HAZLEHURST     FAIR      71  48  45 S5        30.03F
ALMA           MOSUNNY   71  46  40 S9        30.04F
WAYCROSS       MOSUNNY   75  51  42 SW10      30.04F
JESUP          MOCLDY    73  50  43 S9G16     30.05F
BAXLEY         PTSUNNY   73  46  38 SW9G16    30.04F
BRUNSWICK      SUNNY     68  50  52 SE9       30.08F
SAINT SIMONS   SUNNY     63  50  62 SE9       30.09F

$$

SCZ027-028-034-036>038-045-046-048>050-GAZ119-141-012200-
...LAKE AND SUPPLEMENTAL COASTAL OBSERVATIONS...

STATION/POSITION TIME  TEMP    WIND        PRES    WAVE   SWELL
                       AIR SEA DIR/SP/G            HT/PER HT/PER/DIR
                 (UTC) (F)     (DEG/KT/KT) (MB)    (FT/S) (FT/S/D)
UPR LAKE MARION  NOT AVBL
WINYAH BAY       2045   62     180/ 11     1019.0F
LAKE MURRAY      2000   57     200/  6/  8 1017.9F
ACE BASIN NERRS  2000   65     170/  4     1020.0
FORT PULASKI     2100   65 52  150/  6/ 10 1019.3F
SAPELO ISLAND    2100   67     150/  9     1019.0F

$$

ANZ835-935-AMZ111-154-330-350-352-354-370-450-454-472-012200-
...C-MAN AND BUOY OBSERVATIONS...

STATION/POSITION TIME  TEMP    WIND        PRES    WAVE   SWELL
                       AIR SEA DIR/SP/G            HT/PER HT/PER/DIR
                 (UTC) (F)     (DEG/KT/KT) (MB)    (FT/S) (FT/S/D)
BUOY 41004       2050   65 71  160/ 17/ 21 1019.8F   3/11   3/11
BUOY 41008       2050   59 56  130/  6/  8 1019.2F   3/12   2/ 40/12
FOLLY BEACH CMAN 2100   56     150/  8/  9 1020.1F
CAPERS NEARSHORE 2000   58     160/  8/  8   N/A
FRIPP NEARSHORE  2000   59     180/  4/  6 1019.7F


STATION/POSITION TIME  TEMP    WIND        PRES    WAVE   SWELL
                       AIR SEA DIR/SP/G            HT/PER HT/PER/DIR
                 (UTC) (F)     (DEG/KT/KT) (MB)    (FT/S) (FT/S/D)
5E ST. MARYS GA  2021      58                N/A     2/10   2/100/12
FRYING PAN BUOY  2050   62 63  200/ 17/ 21 1021.6F   3/ 3   2/ 90/11
BUOY 41025       2050   56 71  250/ 10/ 14 1022.3F   4/10   3/ 70/10
CAPE LOOKOUT NC  2100   51     120/  3/  3 1021.6F
BUOY 41002       2050   62 71  210/  8/ 14 1025.3F   7/ 9   7/ 30/ 9
BUOY 41010       2020   68 75  130/ 14/ 19 1022.6F
ST AUGUSTINE FL  2100   62     150/ 15/ 16 1019.5F


$$


USA.gov is the U.S. government's official web portal to all federal, state and local government web resources and services.